Regional Weather Roundup
Issued by NWS

Home | Current Version | Previous Version | Text Only | Print | Product List | Glossary On
Versions: 1 2 3 4 5 6 7 8 9 10 11 12 13 14 15 16 17 18 19 20 21 22 23 24 25 26 27 28 29 30 31 32 33 34 35 36 37 38 39 40 41 42 43 44 45 46 47 48 49 50
000
ASUS44 KFWD 280715
RWRTX
NORTH TEXAS HOURLY WEATHER ROUNDUP
NATIONAL WEATHER SERVICE FORT WORTH TX
100 AM CST SUN DEC 28 2014

NOTE: "FAIR" INDICATES FEW OR NO CLOUDS BELOW 12,000 FEET WITH NO
SIGNIFICANT WEATHER AND/OR OBSTRUCTIONS TO VISIBILITY.

TXZ118-119-280800-
DALLAS/FORT WORTH METROPLEX

CITY           SKY/WX    TMP DP  RH WIND       PRES   REMARKS
DFW AIRPORT    CLOUDY    35  25  66 N8        30.29F WCI  29
DALLAS LOVE    CLOUDY    36  25  64 N8        30.31S WCI  30
FTW MEACHAM    CLOUDY    36  25  64 N7        30.29F WCI  30
DAL-EXECUTIVE  CLOUDY    37  24  59 N10       30.29F WCI  30
FTW-ALLIANCE   CLOUDY    33  25  72 N6        30.30F WCI  28
FTW-SPINKS     CLOUDY    35  25  67 N9        30.32S WCI  28
ARLINGTON      CLOUDY    36  24  62 N8        30.30F WCI  30
GRAND PRAIRIE  CLOUDY    36  28  73 N7        30.33S WCI  30
ADDISON        CLOUDY    36  27  69 N7        30.31F WCI  30
MESQUITE       CLOUDY    35  27  72 NW7       30.31S WCI  29
LANCASTER      CLOUDY    35  25  65 N8        30.33R WCI  29
$$

TXZ091>094-102>105-117-120-121-131>134-280800-
NORTH CENTRAL TEXAS

CITY           SKY/WX    TMP DP  RH WIND       PRES   REMARKS
SHRMAN/DENISON CLOUDY    33  29  85 CALM      30.30F
GAINESVILLE    CLOUDY    32  24  72 NW7       30.32S WCI  26
BOWIE          CLOUDY    30  26  84 NW6       30.29F WCI  24
BRIDGEPORT     CLOUDY    34  26  72 N6        30.33F WCI  29
DECATUR        CLOUDY    32  23  69 N3        30.29S
DENTON         CLOUDY    33  26  75 N5        30.30F WCI  29
MCKINNEY       CLOUDY    34  26  72 N7        30.29F WCI  28
GREENVILLE     CLOUDY    34  28  80 N8        30.29S WCI  27
ROCKWALL       CLOUDY    35  27  70 N8        30.27F WCI  29
TERRELL        CLOUDY    37  26  64 N9        30.30S WCI  30
WAXAHACHIE     CLOUDY    35  29  78 N8        30.31S WCI  28
CLEBURNE       CLOUDY    36  25  64 N10       30.30F WCI  28
GRANBURY       CLOUDY    35  27  73 NW3       30.32F
$$

TXZ083>090-098>101-113>116-127>130-139>142-154-155-280800-
WESTERN NORTH TEXAS

CITY           SKY/WX    TMP DP  RH WIND       PRES   REMARKS
WICHITA FALLS  MOCLDY    29  22  75 NW6       30.33R WCI  23
WF-KICKAPOO    MOCLDY    31  26  83 NW5       30.33S WCI  26
VERNON         PTCLDY    29  21  71 W6        30.33S WCI  23
ABILENE        CLOUDY    32  27  81 W5        30.33R WCI  27
ABILENE-DYESS  CLOUDY    32  28  84 W6        30.32R WCI  26
BRECKENRIDGE   MOCLDY    33  27  79 CALM      30.31F
GRAHAM         MOCLDY    30  28  93 CALM      30.30F
MINERAL WELLS  CLOUDY    33  26  75 N6        30.29F WCI  28
STEPHENVILLE   CLOUDY    33  26  73 N7        30.30F WCI  27
COMANCHE       CLOUDY    33  28  81 N5        30.30S WCI  28
BROWNWOOD      CLOUDY    32  25  74 NW7       30.32S WCI  26
COLEMAN        MOCLDY    32  29  88 CALM      30.31S
BRADY          CLEAR     32  27  80 NW6       30.28F WCI  26
$$

TXZ143>147-156>162-174-175-280800-
CENTRAL TEXAS

CITY           SKY/WX    TMP DP  RH WIND       PRES   REMARKS
WACO           CLOUDY    36  27  69 N9        30.28F WCI  29
WACO-MCGREGOR  CLOUDY    36  25  64 N12       30.27F WCI  27
HILLSBORO      CLOUDY    36  27  70 N10       30.28F WCI  28
CORSICANA      CLOUDY    37  28  70 N16       30.27F WCI  28
MEXIA          CLOUDY    37  30  78 N13       30.25F WCI  28
HEARNE         CLOUDY    40  32  75 N15G21    30.24F WCI  31
CAMERON        CLOUDY    39  32  76 N13       30.23F WCI  31
TEMPLE         CLOUDY    36  23  60 N15G23    30.23F WCI  26
KILLEEN        CLOUDY    35  26  67 N18G25    30.23F WCI  25
KILLEEN-SKYLRK CLOUDY    37  21  52 NW13G20   30.23F WCI  29
FORT HOOD      CLOUDY    36  25  65 N17       30.24F WCI  26
GATESVILLE     CLOUDY    36  27  69 N9        30.31F WCI  29
HAMILTON       CLOUDY    35  26  69 N12       30.28F WCI  26
LAMPASAS       CLOUDY    35  26  70 N5        30.25F WCI  31
$$

TXZ095>097-106>112-122>126-135>138-148>153-164>167-280800-
EAST TEXAS

CITY           SKY/WX    TMP DP  RH WIND       PRES   REMARKS
PARIS          CLOUDY    34  27  75 N13       30.27F WCI  25
SULPHUR SPRNGS CLOUDY    36  30  80 N12       30.30R WCI  27
MOUNT PLEASANT CLOUDY    37  33  87 NW9       30.27S WCI  30
GILMER         CLOUDY    36  32  86 NW13      30.24F WCI  27
MINEOLA        CLOUDY    36  32  87 NW8       30.28S WCI  29
TYLER          CLOUDY    37  32  82 NW13      30.23F WCI  29
LONGVIEW       CLOUDY    38  34  85 NW13      30.21F WCI  30
MARSHALL       CLOUDY    41  38  91 NW13      30.20F WCI  33
ATHENS         CLOUDY    36  32  87 N6        30.25F WCI  31
PALESTINE      CLOUDY    38  35  86 NW6       30.24F WCI  34
JACKSONVILLE   CLOUDY    38  36  94 NW9       30.22F WCI  31
HENDERSON      CLOUDY    37  36  94 NW9G17    30.22F WCI  31
NACOGDOCHES      N/A    N/A N/A N/A MISG        N/A
LUFKIN         CLOUDY    45  40  82 NW7       30.21R
$$

SUPPLEMENTAL OBSERVATIONS (CENTRAL)

CITY           SKY/WX    TMP DP  RH WIND       PRES   REMARKS
LAKE TEXOMA      N/A     37  28  70 N8          N/A  WCI  31
PAT MAYSE LAKE   N/A     32  30  93 NW7         N/A  WCI  26
GREENVILLE       N/A     34  27  75 N9          N/A  WCI  26
CEDAR HILL       N/A     36  27  69 N5G14       N/A  WCI  32
LAKE LIMESTONE   N/A     39  32  75 N12         N/A  WCI  32
MCGREGOR         N/A     36  27  69 N9          N/A  WCI  29
$$

SUPPLEMENTAL OBSERVATIONS (WEST)

CITY           SKY/WX    TMP DP  RH WIND       PRES   REMARKS
GRANBURY         N/A     34  27  75 NW3         N/A
COMANCHE         N/A     32  27  80 NW6         N/A  WCI  26
HAMBY            N/A     32  30  93 W6          N/A  WCI  26
IVIE RESERVOIR   N/A     34  28  80 W7          N/A  WCI  28
COLORADO BEND    N/A     34  25  69 N7          N/A  WCI  28
$$

SUPPLEMENTAL OBSERVATIONS (EAST)

CITY           SKY/WX    TMP DP  RH WIND       PRES   REMARKS
CLARKSVILLE      N/A     34  30  86 NW8G16      N/A  WCI  27
TEXARKANA        N/A     39  36  87 NW7         N/A  WCI  34
LINDEN           N/A     37  34  87 N7          N/A  WCI  32
CADDO LAKE       N/A     39  36  87 NW7         N/A  WCI  34
GILMER           N/A     37  32  81 N6          N/A  WCI  33
HENDERSON        N/A     37  34  87 NW17G23     N/A  WCI  28
LUFKIN           N/A     43  39  87 MISG        N/A
N SABINE NF      N/A     45  41  87 MISG        N/A
S SABINE NF      N/A     46  43  87 NW5         N/A
$$

SUPPLEMENTAL OBSERVATIONS ARE A COLLECTION OF AUTOMATED INSTRUMENTS
THAT ARE MAINTAINED BY A VARIETY OF FEDERAL AND STATE AGENCIES.
CERTAIN ELEMENTS...SUCH AS HUMIDITY VALUES AND SUSTAINED WIND
SPEEDS...MAY BE APPROXIMATED.




USA.gov is the U.S. government's official web portal to all federal, state and local government web resources and services.